Volver al catálogo

STARLINK-3880

ActivoComunicacionesVLEO
NORAD 52334·PAYLOAD·🇺🇸 United States

Lanzado Apr 29, 2022 desde Cape Canaveral Space Force Station

Loading…

Próximos Pases (próximas 24 horas)

TLE

ActualizadoSource: CelesTrak SupGP

Época: Sep 15, 2026, 01:24 UTC

1 52334C 22045D   26258.05881944  .00707380  00000+0  22027-1 0  2588
2 52334  53.1604  76.9318 0001150  81.7540 133.9426 15.32376622    10

Sigue STARLINK-3880 en tiempo real con AllMySat

Download on the App Store